Updated20/04/2019 21:10 
 

GeoURL
free counters
Scottish Weather Network UK Weather Network Cumulus Top Weather Sites

Peebles Weather - Wunderground Map

Raw Data, Raw Data Expanded

Ignore low humidity and Dew Point values. Something wrong with the sensor.
Daytime temperatures are in direct sunlight so may be higher than official air temperature values.
As with any other website, we log your IP address and browser type in the server logs for diagnostic reasons. Cookies are used to record visit time and gauges preferences. No personal information is stored or processed.

All times are in local time (GMT, or BST in summer) unless specified.

2019/04/20 19:50 EGPH 201950Z 25003KT CAVOK 16/09 Q1026
13.9°C 0.0 mm 0.0 mm 0.0 mm 0.0 mph 0.0 mph 1009.7 hPa 63% X-Ray Solar Flare Level
Planetary K-Index
Planetary K-Index History
Station Warn Rain Snow Flood Wind Ltng Heat Cold Glob Moon Temp Rain 1h Rain Sat Rain 24h Wind 10m Gust Pressure Hum Proton Levels

0.259 m Waning Gibbous Cool F0-SE F: A: Kp:0 SSN:0

Wundermap

 

XHTML 1.1 | CSS